Flag for Russia Weather past 2 weeks in Kemerovo, Russia

Now
59 °F

Passing clouds.


Feels Like: 58 °F
Forecast: 52 / 76 °F
Wind: 6 mph from West

Location: Kemerovo

Current Time: Jun 3, 2015 at 4:45:36 AM

Latest Report: Jun 3, 2015 at 4:00 AM


Visibility: N/A

Pressure: 29.98 "Hg

Humidity: 100%

Dew point: 59 °F

Location of KemerovoLocation

Historic Weather in Kemerovo — Graph

°F

Kemerovo temperature yesterday

Maximum temperature yesterday: 66 °F (at 4:00 PM)
Minimum temperature yesterday: 57 °F (at 1:00 AM)
Average temperature yesterday: 60 °F

Past Weeks' High & Low Weather Summary

 TemperatureHumidityPressure
High77 °F (May 19, 4:00 PM)100% (May 20, 4:00 AM)30.12 "Hg (May 20, 4:00 AM)
Low39 °F (May 31, 5:30 AM)36% (May 19, 2:00 PM)29.47 "Hg (May 29, 7:30 AM)
Average55 °F74%29.85 "Hg
* Reported May 19 3:00 AM — Jun 3 3:30 AM, Kemerovo, Weather by CustomWeather, © 2015

Note: Actual official high and low records may vary slightly from our data, if they occured in-between our weather recording intervals... More about our weather records

Advertising

Kemerovo weather history for previous 24 hours

 ConditionsComfort  
Time TempWeatherWind HumidityBarometerVisibility
3:30 AM
Wed, Jun 3
61 °FPassing clouds.6 mph94%29.98 "HgN/A
3:00 AM61 °FPassing clouds.8 mph94%29.98 "HgN/A
2:30 AM63 °FPassing clouds.8 mph88%29.98 "HgN/A
2:00 AM63 °FPassing clouds.8 mph88%30.01 "HgN/A
1:30 AM63 °FPassing clouds.8 mph88%30.01 "HgN/A
1:00 AM63 °FPassing clouds.8 mph88%30.01 "HgN/A
12:30 AM63 °FPassing clouds.8 mph88%30.01 "HgN/A
12:00 AM63 °FPassing clouds.8 mph88%30.01 "HgN/A
11:30 PM
Tue, Jun 2
63 °FPassing clouds.8 mph88%30.01 "HgN/A
11:00 PM63 °FPassing clouds.10 mph88%30.01 "HgN/A
10:30 PM63 °FOvercast.10 mph88%29.98 "HgN/A
10:00 PM63 °FOvercast.10 mph88%29.98 "HgN/A
9:30 PM63 °FOvercast.8 mph88%29.98 "HgN/A
9:00 PM63 °FOvercast.8 mph88%29.98 "HgN/A
8:30 PM64 °FSprinkles. Overcast.8 mph78%29.98 "HgN/A
8:00 PM64 °FOvercast.10 mph78%29.98 "HgN/A
7:30 PM64 °FOvercast.8 mph78%29.98 "HgN/A
7:00 PM64 °FOvercast.8 mph78%29.98 "HgN/A
6:30 PM64 °FOvercast.10 mph78%29.98 "HgN/A
6:00 PM64 °FOvercast.8 mph78%29.98 "HgN/A
5:30 PM64 °FOvercast.10 mph73%29.98 "HgN/A
5:00 PM64 °FPartly sunny.13 mph73%29.98 "HgN/A
4:30 PM66 °FPartly sunny.10 mph68%29.98 "HgN/A
4:00 PM66 °FScattered clouds.13 mph68%30.01 "HgN/A
3:30 PM64 °FPartly sunny.17 mph73%30.01 "HgN/A
3:00 PM64 °FPartly sunny.13 mph73%30.01 "HgN/A
2:30 PM59 °FScattered clouds.10 mph88%30.01 "HgN/A
2:00 PM59 °FOvercast.8 mph88%30.01 "HgN/A
1:30 PM59 °FPartly sunny.8 mph82%30.01 "HgN/A
1:00 PM59 °FPartly sunny.10 mph82%30.01 "HgN/A
12:30 PM57 °FPartly sunny.6 mph82%30.01 "HgN/A
12:00 PM57 °FSprinkles. Partly sunny.6 mph88%30.04 "HgN/A
11:30 AM57 °FSprinkles. Scattered clouds.3 mph82%30.04 "HgN/A
10:30 AM57 °FSprinkles. Scattered clouds.6 mph82%30.04 "HgN/A
10:00 AM57 °FSprinkles. Scattered clouds.8 mph82%30.04 "HgN/A
9:30 AM57 °FSprinkles. Scattered clouds.8 mph72%30.04 "HgN/A
9:00 AM57 °FLight rain. Clear.10 mph72%30.04 "HgN/A
8:30 AM59 °FLight rain. Clear.10 mph68%30.04 "HgN/A
8:00 AM59 °FSunny.10 mph68%30.04 "Hg10 mi
7:30 AM59 °FSunny.10 mph68%30.04 "Hg10 mi
7:00 AM59 °FSunny.10 mph68%30.04 "Hg10 mi
6:30 AM57 °FSunny.10 mph67%30.04 "Hg10 mi
6:00 AM57 °FSunny.10 mph67%30.04 "Hg10 mi
5:30 AM57 °FClear.10 mph72%30.04 "Hg10 mi
5:00 AM57 °FClear.10 mph72%30.07 "Hg10 mi
4:30 AM57 °FClear.10 mph67%30.07 "Hg10 mi
4:00 AM57 °FClear.8 mph67%30.07 "Hg10 mi
Weather by CustomWeather, © 2015

See weather overviewHow to use our weather pages